GW7244 Weather Reports


time (UTC)temp
C
wind
direction
speed
KPH
gust
KPH
rain 1hr
cm
rain 24hr
cm
rain mn
cm
humidity
%
barometer
mb
20260506013402 17 33 0.0 1.6 0.00 0.00 0.00 71 1013.9
20260506012857 17 33 0.0 1.6 0.00 0.00 0.00 68 1013.9
20260506012354 17 33 0.0 0.0 0.00 0.00 0.00 70 1014.0
20260506011852 17 33 0.0 1.6 0.00 0.00 0.00 67 1014.1
20260506011348 17 33 0.0 1.6 0.00 0.00 0.00 66 1014.0
20260506010845 17 52 0.0 1.6 0.00 0.00 0.00 66 1014.0
20260506010344 17 52 0.0 1.6 0.00 0.00 0.00 66 1014.1
20260506005840 17 67 0.0 1.6 0.00 0.00 0.00 66 1014.2
20260506005337 17 50 0.0 1.6 0.00 0.00 0.00 64 1014.0
20260506004833 17 53 1.6 1.6 0.00 0.00 0.00 64 1013.9
20260506004331 17 51 1.6 1.6 0.00 0.00 0.00 64 1013.9
20260506003827 17 26 1.6 3.2 0.00 0.00 0.00 63 1014.0
20260506003323 17 32 0.0 1.6 0.00 0.00 0.00 63 1014.0
20260506002820 17 32 0.0 1.6 0.00 0.00 0.00 63 1014.1
20260506002316 17 23 1.6 3.2 0.00 0.00 0.00 65 1014.1
20260506001812 17 7 3.2 4.8 0.00 0.00 0.00 64 1014.2
20260506001309 17 17 1.6 4.8 0.00 0.00 0.00 64 1014.1
20260506000806 17 20 3.2 3.2 0.00 0.00 0.00 66 1014.3
20260506000304 17 18 1.6 4.8 0.00 0.00 0.00 65 1014.0
20260505235800 17 31 1.6 3.2 0.00 0.00 0.00 65 1014.3
20260505235258 17 358 3.2 6.4 0.00 0.00 0.00 65 1014.2
20260505234755 17 337 3.2 6.4 0.00 0.00 0.00 65 1014.4
20260505234252 17 34 1.6 3.2 0.00 0.00 0.00 66 1014.4
20260505233749 17 30 1.6 4.8 0.00 0.00 0.00 66 1014.5
20260505233247 17 353 4.8 6.4 0.00 0.00 0.00 64 1014.2
20260505232744 17 19 3.2 3.2 0.00 0.00 0.00 66 1014.4
20260505232241 17 353 6.4 9.7 0.00 0.00 0.00 66 1014.4
20260505231738 17 297 1.6 6.4 0.00 0.00 0.00 66 1014.4
20260505231237 17 19 1.6 4.8 0.00 0.00 0.00 66 1014.6
20260505230735 17 19 0.0 4.8 0.00 0.00 0.00 65 1014.5
20260505230231 17 359 3.2 4.8 0.00 0.00 0.00 64 1014.5
20260505225727 17 13 3.2 4.8 0.00 0.00 0.00 64 1014.6
20260505225225 17 21 4.8 6.4 0.00 0.00 0.00 65 1014.5
20260505224720 17 30 1.6 3.2 0.00 0.00 0.00 65 1014.3
20260505224218 17 355 4.8 6.4 0.00 0.00 0.00 63 1014.6
20260505223715 17 17 3.2 4.8 0.00 0.00 0.00 63 1014.6
20260505223211 17 33 1.6 1.6 0.00 0.00 0.00 63 1014.7
20260505222707 17 15 0.0 1.6 0.00 0.00 0.00 64 1014.7
20260505222203 17 6 3.2 4.8 0.00 0.00 0.00 62 1014.5
20260505221701 18 16 1.6 4.8 0.00 0.00 0.00 63 1014.7
20260505221157 17 28 0.0 1.6 0.00 0.00 0.00 64 1014.8
20260505220654 17 17 3.2 6.4 0.00 0.00 0.00 63 1014.8
20260505220152 17 19 1.6 3.2 0.00 0.00 0.00 63 1014.9
20260505215650 17 34 0.0 4.8 0.00 0.00 0.00 64 1014.8
20260505215148 17 63 0.0 3.2 0.00 0.00 0.00 63 1014.8
20260505214645 17 24 1.6 3.2 0.00 0.00 0.00 66 1014.8
20260505214142 17 10 3.2 4.8 0.00 0.00 0.00 64 1015.0
20260505213640 17 38 0.0 1.6 0.00 0.00 0.00 65 1014.9
20260505213136 16 27 1.6 3.2 0.00 0.00 0.00 67 1014.9
20260505212632 16 346 3.2 6.4 0.00 0.00 0.00 67 1014.8
20260505212130 16 330 3.2 4.8 0.00 0.00 0.00 66 1014.9
20260505211627 17 355 3.2 4.8 0.00 0.00 0.00 64 1014.9
20260505211124 17 88 1.6 3.2 0.00 0.00 0.00 64 1014.8
20260505210621 17 31 0.0 1.6 0.00 0.00 0.00 64 1015.0
20260505210117 17 27 1.6 3.2 0.00 0.00 0.00 64 1015.0
20260505205615 17 19 1.6 3.2 0.00 0.00 0.00 68 1015.1
20260505205113 17 76 1.6 4.8 0.00 0.00 0.00 66 1015.1
20260505204610 17 68 1.6 1.6 0.00 0.00 0.00 65 1015.3
20260505204107 17 11 3.2 4.8 0.00 0.00 0.00 64 1015.1
20260505203603 16 37 0.0 1.6 0.00 0.00 0.00 65 1015.3
20260505203101 16 3 3.2 4.8 0.00 0.00 0.00 67 1015.1
20260505202556 16 358 1.6 3.2 0.00 0.00 0.00 69 1015.4
20260505202053 16 72 1.6 4.8 0.00 0.00 0.00 69 1015.3
20260505201550 16 76 3.2 4.8 0.00 0.00 0.00 68 1015.4
20260505201048 16 83 3.2 4.8 0.00 0.00 0.00 68 1015.5
20260505200545 16 19 1.6 3.2 0.00 0.00 0.00 67 1015.7
20260505200042 16 39 0.0 1.6 0.00 0.00 0.00 69 1015.6
20260505195538 15 8 1.6 3.2 0.00 0.00 0.00 70 1015.5
20260505195036 15 46 1.6 3.2 0.00 0.00 0.00 71 1015.7
20260505194533 15 356 3.2 3.2 0.00 0.00 0.00 71 1015.6
20260505194028 15 22 0.0 1.6 0.00 0.00 0.00 72 1015.3
20260505193525 15 31 0.0 3.2 0.00 0.00 0.00 71 1015.7
20260505193022 15 10 3.2 3.2 0.00 0.00 0.00 70 1015.6
20260505192521 16 49 3.2 3.2 0.00 0.00 0.00 69 1015.5
20260505192018 16 38 1.6 3.2 0.00 0.00 0.00 69 1015.6
20260505191516 16 28 1.6 3.2 0.00 0.00 0.00 69 1015.7
20260505191014 16 8 3.2 3.2 0.00 0.00 0.00 72 1015.7
20260505190508 15 62 0.0 1.6 0.00 0.00 0.00 72 1015.7
20260505190005 15 49 0.0 1.6 0.00 0.00 0.00 72 1015.7
20260505185502 15 80 0.0 3.2 0.00 0.00 0.00 72 1015.6
20260505184958 15 77 0.0 3.2 0.00 0.00 0.00 74 1015.8
20260505184455 14 146 3.2 3.2 0.00 0.00 0.00 74 1015.7
20260505183951 14 91 0.0 1.6 0.00 0.00 0.00 74 1015.6
20260505183449 14 88 1.6 1.6 0.00 0.00 0.00 75 1015.9
20260505182945 14 120 1.6 3.2 0.00 0.00 0.00 74 1015.7
20260505182442 14 18 3.2 3.2 0.00 0.00 0.00 75 1015.7
20260505181938 14 36 0.0 1.6 0.00 0.00 0.00 75 1015.5
20260505181436 15 13 3.2 3.2 0.00 0.00 0.00 73 1015.5
20260505180932 15 28 0.0 1.6 0.00 0.00 0.00 73 1015.5
20260505180429 14 50 0.0 1.6 0.00 0.00 0.00 74 1015.8
20260505175925 14 34 0.0 1.6 0.00 0.00 0.00 75 1015.5
20260505175421 14 72 1.6 1.6 0.00 0.00 0.00 76 1015.6
20260505174918 14 92 1.6 3.2 0.00 0.00 0.00 74 1015.4
20260505174416 14 73 1.6 1.6 0.00 0.00 0.00 75 1015.5
20260505173912 14 125 1.6 4.8 0.00 0.00 0.00 74 1015.6
20260505173408 14 55 1.6 1.6 0.00 0.00 0.00 73 1015.7
20260505172905 14 78 0.0 3.2 0.00 0.00 0.00 74 1015.4
20260505172403 14 69 0.0 1.6 0.00 0.00 0.00 74 1015.4
20260505171903 14 19 1.6 3.2 0.00 0.00 0.00 73 1015.3
20260505171400 14 26 1.6 3.2 0.00 0.00 0.00 74 1015.3
20260505170856 14 88 1.6 3.2 0.00 0.00 0.00 75 1015.4
20260505170353 14 56 1.6 3.2 0.00 0.00 0.00 74 1015.1
20260505165848 14 75 0.0 1.6 0.00 0.00 0.00 75 1015.1
20260505165344 13 43 0.0 1.6 0.00 0.00 0.00 75 1015.1
20260505164840 13 53 0.0 1.6 0.00 0.00 0.00 74 1015.1
20260505164337 13 133 1.6 6.4 0.00 0.00 0.00 74 1014.9
20260505163835 13 101 0.0 3.2 0.00 0.00 0.00 75 1015.1
20260505163334 13 35 0.0 3.2 0.00 0.00 0.00 76 1015.0
20260505162832 13 35 0.0 1.6 0.00 0.00 0.00 77 1015.0
20260505162328 13 87 0.0 3.2 0.00 0.00 0.00 78 1015.1
20260505161825 13 92 4.8 6.4 0.00 0.00 0.00 78 1014.9
20260505161322 13 79 1.6 3.2 0.00 0.00 0.00 78 1015.0
20260505160819 13 158 3.2 4.8 0.00 0.00 0.00 78 1014.9
20260505160317 13 88 3.2 4.8 0.00 0.00 0.00 79 1015.0
20260505153256 12 98 1.6 4.8 0.00 0.00 0.00 80 1015.0
20260505152754 12 116 1.6 6.4 0.00 0.00 0.00 81 1014.8
20260505152250 12 98 1.6 4.8 0.00 0.00 0.00 80 1015.0
20260505151749 12 101 3.2 4.8 0.00 0.00 0.00 81 1014.9
20260505151247 12 163 4.8 6.4 0.00 0.00 0.00 81 1014.9
20260505150744 12 92 1.6 4.8 0.00 0.00 0.00 81 1014.7
20260505150241 12 62 0.0 1.6 0.00 0.00 0.00 80 1015.0
20260505140211 12 88 3.2 3.2 0.00 0.00 0.00 82 1014.0
20260505130135 12 103 1.6 3.2 0.00 0.00 0.00 81 1014.0
20260505124625 12 94 0.0 1.6 0.00 0.00 0.00 81 1013.8
20260505124121 12 94 1.6 3.2 0.00 0.00 0.00 80 1013.7
20260505123617 12 94 0.0 0.0 0.00 0.00 0.00 80 1013.6
20260505123114 12 94 0.0 1.6 0.00 0.00 0.00 80 1013.7
20260505122611 12 94 1.6 3.2 0.00 0.00 0.00 80 1013.7
20260505122108 12 98 0.0 3.2 0.00 0.00 0.00 79 1013.8
20260505121604 12 89 0.0 1.6 0.00 0.00 0.00 80 1013.7
20260505121101 12 89 0.0 1.6 0.00 0.00 0.00 80 1013.9
20260505120557 12 89 0.0 1.6 0.00 0.00 0.00 80 1013.6
20260505120053 12 90 0.0 1.6 0.00 0.00 0.00 80 1013.8
20260505115548 12 70 0.0 0.0 0.00 0.00 0.00 79 1013.7
20260505115046 12 71 0.0 1.6 0.00 0.00 0.00 79 1013.6
20260505114543 12 71 0.0 1.6 0.00 0.00 0.00 79 1013.7
20260505114039 12 77 0.0 0.0 0.00 0.00 0.00 80 1013.7
20260505113535 12 78 0.0 1.6 0.00 0.00 0.00 79 1013.6
20260505113032 12 59 0.0 1.6 0.00 0.00 0.00 79 1013.7
20260505112528 12 59 0.0 1.6 0.00 0.00 0.00 79 1013.5
20260505112026 12 88 1.6 4.8 0.00 0.00 0.00 79 1013.4
20260505111520 12 83 0.0 1.6 0.00 0.00 0.00 79 1013.7
20260505111016 12 83 0.0 1.6 0.00 0.00 0.00 79 1013.5
20260505110513 12 102 0.0 1.6 0.00 0.00 0.00 79 1013.5
20260505101945 12 104 0.0 1.6 0.00 0.00 0.00 78 1013.3
20260505101443 12 107 0.0 0.0 0.00 0.00 0.00 79 1013.2
20260505100940 12 107 0.0 1.6 0.00 0.00 0.00 79 1013.2
20260505100437 12 107 0.0 0.0 0.00 0.00 0.00 79 1013.0
20260505095933 12 108 1.6 1.6 0.00 0.00 0.00 78 1013.1
20260505095430 12 109 0.0 4.8 0.00 0.00 0.00 78 1013.2
20260505094926 12 100 0.0 3.2 0.00 0.00 0.00 78 1013.2
20260505094423 12 103 0.0 1.6 0.00 0.00 0.00 79 1013.0
20260505093919 12 105 0.0 1.6 0.00 0.00 0.00 79 1013.2
20260505093416 12 98 0.0 3.2 0.00 0.00 0.00 79 1013.1
20260505092913 12 100 1.6 3.2 0.00 0.00 0.00 79 1013.2
20260505092412 12 105 1.6 3.2 0.00 0.00 0.00 78 1013.1
20260505091909 12 89 1.6 4.8 0.00 0.00 0.00 78 1013.2
20260505091406 12 147 3.2 4.8 0.00 0.00 0.00 78 1013.0
20260505090903 12 126 3.2 3.2 0.00 0.00 0.00 78 1012.7
20260505090402 13 86 1.6 1.6 0.00 0.00 0.00 78 1012.8
20260505085858 13 98 0.0 3.2 0.00 0.00 0.00 77 1012.8
20260505085356 13 122 3.2 3.2 0.00 0.00 0.00 77 1012.6
20260505084855 13 87 0.0 3.2 0.00 0.00 0.00 76 1012.5
20260505084353 13 83 0.0 3.2 0.00 0.00 0.00 76 1012.7
20260505083850 13 62 1.6 1.6 0.00 0.00 0.00 76 1012.8
20260505083347 13 75 0.0 0.0 0.00 0.00 0.00 76 1012.7
20260505082844 13 75 0.0 3.2 0.00 0.00 0.00 76 1012.8
20260505082340 13 10 0.0 3.2 0.00 0.00 0.00 75 1012.6
20260505081836 13 85 0.0 3.2 0.00 0.00 0.00 75 1012.4
20260505081333 13 67 1.6 3.2 0.00 0.00 0.00 75 1012.7
20260505080830 13 47 0.0 1.6 0.00 0.00 0.00 75 1012.6
20260505080326 13 45 1.6 3.2 0.00 0.00 0.00 74 1012.6
20260505075821 13 31 0.0 0.0 0.00 0.00 0.00 75 1012.6
20260505075318 13 31 0.0 0.0 0.00 0.00 0.00 75 1012.5
20260505074816 13 358 1.6 6.4 0.00 0.00 0.00 74 1012.6
20260505074313 13 74 0.0 1.6 0.00 0.00 0.00 74 1012.3
20260505073810 13 74 0.0 1.6 0.00 0.00 0.00 74 1012.2
20260505073308 13 17 1.6 3.2 0.00 0.00 0.00 74 1012.1
20260505072805 13 127 1.6 6.4 0.00 0.00 0.00 73 1012.1
20260505072301 14 72 0.0 1.6 0.00 0.00 0.00 73 1012.0
20260505071757 14 72 0.0 3.2 0.00 0.00 0.00 72 1012.0
20260505071253 14 71 0.0 0.0 0.00 0.00 0.00 72 1011.7
20260505070751 15 104 1.6 4.8 0.00 0.00 0.00 71 1011.8
20260505070248 15 91 1.6 6.4 0.00 0.00 0.00 71 1011.6
20260505065743 15 174 1.6 11.3 0.00 0.00 0.00 70 1011.9
20260505065240 15 175 6.4 9.7 0.00 0.00 0.00 69 1011.7
20260505064737 15 170 4.8 4.8 0.00 0.00 0.00 70 1011.5
20260505064235 15 109 1.6 3.2 0.00 0.00 0.00 70 1011.5
20260505063732 15 189 4.8 12.9 0.00 0.00 0.00 69 1011.5
20260505063228 15 266 3.2 6.4 0.00 0.00 0.00 69 1011.5
20260505062725 15 123 4.8 9.7 0.00 0.00 0.00 69 1011.3
20260505062223 16 105 1.6 4.8 0.00 0.00 0.00 70 1011.2
20260505061719 16 154 3.2 3.2 0.00 0.00 0.00 69 1011.3
20260505061217 16 126 3.2 4.8 0.00 0.00 0.00 68 1011.3
20260505060714 16 165 4.8 4.8 0.00 0.00 0.00 68 1011.1
20260505060211 16 97 0.0 1.6 0.00 0.00 0.00 68 1011.0
20260505055707 16 145 3.2 4.8 0.00 0.00 0.00 67 1010.9
20260505055203 16 128 3.2 4.8 0.00 0.00 0.00 67 1011.0
20260505054700 17 39 0.0 1.6 0.00 0.00 0.00 69 1011.0
20260505054158 17 84 0.0 0.0 0.00 0.00 0.00 68 1010.9
20260505053656 17 91 1.6 3.2 0.00 0.00 0.00 66 1011.0
20260505053152 17 131 3.2 4.8 0.00 0.00 0.00 66 1011.0
20260505052649 18 146 4.8 6.4 0.00 0.00 0.00 65 1010.8
20260505052147 18 147 3.2 6.4 0.00 0.00 0.00 65 1010.9
20260505051643 18 64 1.6 1.6 0.00 0.00 0.00 66 1010.9
20260505051142 18 67 0.0 1.6 0.00 0.00 0.00 66 1011.1
20260505050639 18 111 1.6 3.2 0.00 0.00 0.00 65 1010.6
20260505050137 18 108 3.2 4.8 0.00 0.00 0.00 66 1010.7
20260505041607 19 34 1.6 1.6 0.00 0.00 0.00 67 1010.1
20260505041104 19 103 1.6 9.7 0.00 0.00 0.00 65 1009.7
20260505040601 19 106 3.2 6.4 0.00 0.00 0.00 66 1009.8
20260505040058 18 155 3.2 6.4 0.00 0.00 0.00 68 1009.7
20260505035555 19 32 1.6 3.2 0.00 0.00 0.00 68 1009.6
20260505035051 19 141 6.4 6.4 0.00 0.00 0.00 67 1009.7
20260505034548 19 93 3.2 3.2 0.00 0.00 0.00 67 1009.5
20260505034044 19 70 1.6 1.6 0.00 0.00 0.00 67 1009.6
20260505033542 19 86 0.0 3.2 0.00 0.00 0.00 68 1009.3
20260505033040 18 97 0.0 1.6 0.00 0.00 0.00 69 1009.4
20260505032537 19 98 0.0 1.6 0.00 0.00 0.00 68 1009.2
20260505032034 19 98 0.0 1.6 0.00 0.00 0.00 68 1009.3
20260505031531 20 98 0.0 0.0 0.00 0.00 0.00 66 1009.3
20260505031027 20 104 0.0 1.6 0.00 0.00 0.00 66 1009.3
20260505030524 20 106 3.2 3.2 0.00 0.00 0.00 65 1009.1
20260505030020 20 106 0.0 1.6 0.00 0.00 0.00 65 1008.8
20260505025516 20 107 0.0 0.0 0.00 0.00 0.00 64 1009.0
20260505025016 20 108 0.0 1.6 0.00 0.00 0.00 64 1009.0
20260505024512 20 102 0.0 1.6 0.00 0.00 0.00 63 1008.9
20260505024009 20 103 0.0 1.6 0.00 0.00 0.00 64 1009.1
20260505023506 21 92 1.6 1.6 0.00 0.00 0.00 62 1008.9
20260505023003 21 49 0.0 1.6 0.00 0.00 0.00 62 1008.9
20260505022501 21 66 1.6 1.6 0.00 0.00 0.00 61 1008.9
20260505021958 21 95 1.6 9.7 0.00 0.00 0.00 60 1008.8
20260505021454 21 113 3.2 3.2 0.00 0.00 0.00 59 1008.8
20260505020950 22 141 6.4 6.4 0.00 0.00 0.00 57 1008.8
20260505020445 22 73 1.6 4.8 0.00 0.00 0.00 58 1008.9
20260505015942 22 78 0.0 4.8 0.00 0.00 0.00 57 1008.7
20260505015439 21 101 0.0 1.6 0.00 0.00 0.00 57 1009.0
20260505014937 21 98 1.6 6.4 0.00 0.00 0.00 58 1009.0
20260505014433 21 108 1.6 4.8 0.00 0.00 0.00 58 1008.9
20260505013931 21 111 1.6 4.8 0.00 0.00 0.00 57 1009.0